Volver al catálogo

COSMOS 1275 DEB

ActivoPO
NORAD 39937·DEBRIS·🇷🇺 Russia

Lanzado Jun 4, 1981 desde Plesetsk Cosmodrome

Loading…

Próximos Pases (próximas 24 horas)

TLE

ActualizadoSource: Space-Track

Época: Sep 14, 2026, 03:24 UTC

1 39937U 81053MX  26257.14206713  .00000625  00000-0  50098-3 0  9992
2 39937  82.8848  52.0167 0063988 218.6396 141.0181 13.88393070647028

Sigue COSMOS 1275 DEB en tiempo real con AllMySat

Download on the App Store